Stations météo

réclame
Mon MeteoGroup
Vitoria, Espagne (8080): Température de l'air & dewpoint: 05.12.2017 04:00:00 - 11.12.2017 04:00:00 (CET)Vitoria, Espagne (8080): Vitesse du vent & gusts: 05.12.2017 04:00:00 - 11.12.2017 04:00:00 (CET)Vitoria, Espagne (8080): Direction du vent: 05.12.2017 04:00:00 - 11.12.2017 04:00:00 (CET)Vitoria, Espagne (8080): reduced air pressure: 05.12.2017 04:00:00 - 11.12.2017 04:00:00 (CET)Vitoria, Espagne (8080): visibility: 05.12.2017 04:00:00 - 11.12.2017 04:00:00 (CET)
Date & Time tt [°C] td [°C] ff [km/h] ff [knt] fx [km/h] fx [knt] dd ppp [hPa] vv [km]
11.12.2017 04:00:00 6,5 4,2 28 15 - - SW 987,2 15
11.12.2017 03:00:00 7,0 5,1 35 19 94 51 SSW 986,1 -
11.12.2017 02:00:00 11,0 7,3 55 30 94 51 WSW 983,6 -
11.12.2017 01:00:00 14,0 6,6 54 29 - - SW 982,0 20
11.12.2017 00:00:00 13,9 7,1 59 32 100 54 SW 983,4 -
10.12.2017 23:00:00 13,9 7,4 70 38 106 57 SSW 984,5 -
10.12.2017 22:00:00 13,4 7,5 70 38 - - SW 986,8 15
10.12.2017 21:00:00 13,4 7,8 44 24 78 42 SW 990,3 -
10.12.2017 20:00:00 13,2 8,6 41 22 - - SW 993,1 -
10.12.2017 19:00:00 12,6 9,2 35 19 - - SW 995,1 15
10.12.2017 18:00:00 12,4 9,2 46 25 - - SW 997,4 -
10.12.2017 17:00:00 12,5 9,0 42 23 - - SW 999,1 -
10.12.2017 16:00:00 13,0 8,7 46 25 - - SW 1000,2 15
10.12.2017 15:00:00 12,9 8,6 55 30 81 44 SW 1001,1 -
10.12.2017 14:00:00 13,1 8,6 35 19 - - WSW 1003,5 20
10.12.2017 13:00:00 12,9 8,4 35 19 - - SW 1005,4 20
10.12.2017 12:00:00 12,4 8,3 28 15 - - WSW 1007,5 -
10.12.2017 11:00:00 11,8 7,9 39 21 - - SW 1008,5 -
10.12.2017 10:00:00 11,1 7,9 31 17 - - SW 1009,6 15
10.12.2017 09:00:00 10,7 7,4 18 10 - - SSW 1010,6 -
10.12.2017 08:00:00 10,7 7,2 22 12 - - SSW 1011,4 20
10.12.2017 07:00:00 10,9 6,7 24 13 - - SW 1012,0 20
10.12.2017 06:00:00 10,9 6,9 21 11 - - WSW 1012,4 -
10.12.2017 05:00:00 11,0 7,1 24 13 - - SW 1013,7 -
10.12.2017 04:00:00 11,1 7,2 13 7 - - SW 1014,5 15
10.12.2017 03:00:00 10,7 7,8 11 6 - - SW 1015,0 -
10.12.2017 02:00:00 11,1 7,7 13 7 - - SSW 1015,3 -
10.12.2017 01:00:00 11,0 8,1 13 7 - - WSW 1016,7 15
10.12.2017 00:00:00 10,2 8,3 15 8 - - SW 1017,5 -
09.12.2017 23:00:00 10,0 8,1 11 6 - - SW 1018,0 -
09.12.2017 22:00:00 8,9 7,5 18 10 - - SW 1018,7 10
09.12.2017 21:00:00 8,3 6,9 18 10 - - SW 1018,9 -
09.12.2017 20:00:00 7,8 6,4 21 11 - - SSW 1019,7 -
09.12.2017 19:00:00 7,6 5,9 16 9 - - SSW 1020,2 8
09.12.2017 18:00:00 - - - - - - - - -
09.12.2017 17:00:00 - - - - - - - - -
09.12.2017 16:00:00 7,4 5,5 8 4 - - SW 1021,8 15
09.12.2017 15:00:00 7,3 4,8 11 6 - - SSW 1022,9 -
09.12.2017 14:00:00 7,4 4,4 13 7 - - SW 1024,0 20
09.12.2017 13:00:00 7,4 4,7 15 8 - - SW 1025,0 20
09.12.2017 12:00:00 7,1 4,2 8 4 - - SW 1026,1 -
09.12.2017 11:00:00 6,1 3,8 0 0 - - N 1027,2 -
09.12.2017 10:00:00 3,1 2,8 2 1 - - W 1027,8 15
09.12.2017 09:00:00 1,8 1,4 0 0 - - N 1028,1 -
09.12.2017 08:00:00 2,4 1,8 4 2 - - SSW 1027,9 15
09.12.2017 07:00:00 3,0 2,3 0 0 - - N 1027,9 15
09.12.2017 06:00:00 3,4 2,7 9 5 - - W 1027,8 -
09.12.2017 05:00:00 4,7 3,4 4 2 - - WNW 1027,8 -
09.12.2017 04:00:00 4,7 3,8 4 2 - - N 1028,5 15
09.12.2017 03:00:00 4,9 3,9 2 1 - - N 1028,3 -
09.12.2017 02:00:00 5,3 4,4 2 1 - - WNW 1028,4 -
09.12.2017 01:00:00 5,3 4,7 0 0 - - N 1028,5 15
09.12.2017 00:00:00 5,4 4,8 0 0 - - N 1028,9 -
08.12.2017 23:00:00 5,7 5,0 4 2 - - NNW 1028,8 -
08.12.2017 22:00:00 5,6 4,8 5 3 - - WNW 1028,8 15
08.12.2017 21:00:00 6,0 4,8 4 2 - - WNW 1028,6 -
08.12.2017 20:00:00 6,0 5,0 0 0 - - N 1028,4 -
08.12.2017 19:00:00 6,4 4,9 9 5 - - NW 1028,1 15
08.12.2017 18:00:00 7,0 5,6 8 4 - - NNW 1028,0 -
08.12.2017 17:00:00 7,5 5,6 11 6 - - N 1027,7 -
08.12.2017 16:00:00 8,9 7,0 8 4 - - NW 1026,8 15
08.12.2017 15:00:00 8,8 7,4 11 6 - - WNW 1026,8 -
08.12.2017 14:00:00 8,5 7,2 8 4 - - WNW 1027,4 8
08.12.2017 13:00:00 8,1 7,1 8 4 - - W 1028,2 6
08.12.2017 12:00:00 6,8 5,9 0 0 - - N 1028,9 -
08.12.2017 11:00:00 6,1 5,6 5 3 - - NNE 1029,2 -
08.12.2017 10:00:00 5,1 4,7 4 2 - - NE 1028,8 3,0
08.12.2017 09:00:00 4,4 4,0 8 4 - - E 1028,3 -
08.12.2017 08:00:00 4,4 3,8 2 1 - - NNE 1028,0 7
08.12.2017 07:00:00 4,1 3,1 4 2 - - NNW 1027,6 12
08.12.2017 06:00:00 3,5 2,3 4 2 - - NNE 1027,7 -
08.12.2017 05:00:00 3,1 2,1 0 0 - - N 1028,0 -
08.12.2017 04:00:00 3,5 2,5 2 1 - - ENE 1028,1 15
08.12.2017 03:00:00 2,5 1,0 4 2 - - NNE 1028,5 -
08.12.2017 02:00:00 3,6 1,8 8 4 - - E 1028,5 -
08.12.2017 01:00:00 6,1 1,4 8 4 - - SSW 1028,2 20
08.12.2017 00:00:00 7,1 2,4 15 8 - - SSW 1028,6 -
07.12.2017 23:00:00 6,6 2,7 16 9 - - SSW 1028,8 -
07.12.2017 22:00:00 6,5 2,5 22 12 - - SW 1028,8 20
07.12.2017 21:00:00 6,7 1,2 16 9 - - SW 1028,3 -
07.12.2017 20:00:00 7,2 1,1 5 3 - - SSW 1028,4 -
07.12.2017 19:00:00 7,1 1,4 11 6 - - SW 1028,8 20
07.12.2017 18:00:00 8,1 2,1 13 7 - - SSW 1028,5 -
07.12.2017 17:00:00 9,2 1,8 13 7 - - SSW 1028,2 -
07.12.2017 16:00:00 9,5 2,3 9 5 - - SW 1027,9 20
07.12.2017 15:00:00 8,8 2,2 18 10 - - SSW 1028,5 -
07.12.2017 14:00:00 8,2 1,6 15 8 - - SW 1029,2 20
07.12.2017 13:00:00 6,6 0,6 16 9 - - SW 1030,4 20
07.12.2017 12:00:00 5,7 0,8 8 4 - - SSW 1031,4 -
07.12.2017 11:00:00 3,8 -0,5 13 7 - - SSW 1032,5 -
07.12.2017 10:00:00 3,1 -0,7 8 4 - - SW 1032,6 15
07.12.2017 09:00:00 1,2 -1,4 4 2 - - SW 1032,9 -
07.12.2017 08:00:00 -0,1 -1,4 4 2 - - E 1033,1 15
07.12.2017 07:00:00 0,7 -1,7 4 2 - - SSW 1032,6 10
07.12.2017 06:00:00 -0,6 -1,6 4 2 - - ESE 1032,9 -
07.12.2017 05:00:00 -1,3 -2,1 0 0 - - N 1033,3 -
07.12.2017 04:00:00 - - - - - - - - -
07.12.2017 03:00:00 -1,6 -2,3 9 5 - - NE 1033,8 -
07.12.2017 02:00:00 -1,7 -2,5 0 0 - - N 1034,1 -
07.12.2017 01:00:00 -0,8 -2,8 5 3 - - S 1034,2 9
07.12.2017 00:00:00 -1,8 -2,4 5 3 - - E 1034,7 -
06.12.2017 23:00:00 -1,6 -2,3 4 2 - - ENE 1034,9 -
06.12.2017 22:00:00 -1,5 -2,1 4 2 - - ENE 1035,0 9
06.12.2017 21:00:00 -1,2 -1,8 4 2 - - E 1035,0 -
06.12.2017 20:00:00 -0,5 -0,9 5 3 - - ENE 1034,6 -
06.12.2017 19:00:00 0,8 -0,8 0 0 - - N 1034,3 10
06.12.2017 18:00:00 2,4 -0,2 4 2 - - SSW 1033,9 -
06.12.2017 17:00:00 5,2 0,8 5 3 - - S 1033,2 -
06.12.2017 16:00:00 6,2 1,1 8 4 - - S 1032,8 20
06.12.2017 15:00:00 5,8 0,2 8 4 - - SSW 1033,1 -
06.12.2017 14:00:00 4,7 2,1 4 2 - - S 1033,9 9
06.12.2017 13:00:00 1,7 1,2 8 4 - - NE 1035,6 3,5
06.12.2017 12:00:00 0,0 -0,3 4 2 - - ENE 1036,6 -
06.12.2017 11:00:00 -1,3 -1,5 0 0 - - N 1037,4 -
06.12.2017 10:00:00 -1,9 -2,2 5 3 - - S 1037,4 1,2
06.12.2017 09:00:00 -1,9 -2,0 4 2 - - S 1037,3 -
06.12.2017 08:00:00 -1,9 -2,0 4 2 - - S 1037,1 0,3
06.12.2017 07:00:00 -2,2 -2,3 5 3 - - ENE 1037,3 0,2
06.12.2017 06:00:00 -1,5 -1,6 4 2 - - ESE 1037,1 -
06.12.2017 05:00:00 -1,9 -2,0 0 0 - - N 1037,1 -
06.12.2017 04:00:00 -2,1 -2,2 0 0 - - N 1037,5 0,2
06.12.2017 03:00:00 -2,5 -2,7 2 1 - - ENE 1037,6 -
06.12.2017 02:00:00 -3,4 -3,7 0 0 - - N 1037,9 -
06.12.2017 01:00:00 -3,9 -4,3 0 0 - - N 1038,4 0,8
06.12.2017 00:00:00 -2,7 -3,0 0 0 - - N 1038,4 -
05.12.2017 23:00:00 -2,5 -2,9 2 1 - - NE 1038,2 -
05.12.2017 22:00:00 -1,4 -1,7 0 0 - - N 1038,1 9
05.12.2017 21:00:00 -1,6 -2,2 0 0 - - N 1038,2 -
05.12.2017 20:00:00 -0,5 -1,1 8 4 - - NE 1037,8 -
05.12.2017 19:00:00 0,6 -0,4 2 1 - - NNE 1037,4 20
05.12.2017 18:00:00 3,0 0,9 4 2 - - NE 1036,8 -
05.12.2017 17:00:00 5,9 2,1 5 3 - - ENE 1036,0 -
05.12.2017 16:00:00 7,4 2,7 8 4 - - E 1035,5 30
05.12.2017 15:00:00 7,9 2,8 5 3 - - ESE 1035,6 -
05.12.2017 14:00:00 6,7 1,7 0 0 - - N 1036,4 30
05.12.2017 13:00:00 4,6 2,4 4 2 - - E 1037,3 20
05.12.2017 12:00:00 2,2 0,8 2 1 - - ENE 1038,6 -
05.12.2017 11:00:00 -0,1 -0,5 2 1 - - ENE 1039,4 -
05.12.2017 10:00:00 -1,9 -2,3 4 2 - - ENE 1039,8 5
05.12.2017 09:00:00 -3,9 -4,3 0 0 - - N 1040,3 -
05.12.2017 08:00:00 -3,9 -4,3 0 0 - - N 1039,9 4,0
05.12.2017 07:00:00 -3,6 -4,0 2 1 - - NNE 1039,6 0,8
05.12.2017 06:00:00 -3,6 -3,9 0 0 - - N 1039,6 -
05.12.2017 05:00:00 -3,1 -3,2 0 0 - - N 1039,6 -
05.12.2017 04:00:00 -2,3 -2,4 0 0 - - N 1039,7 0,8

tt = Température de l'air
td = dewpoint
ff = Vitesse du vent
fx = gusts
dd = Direction du vent
ppp = reduced air pressure
vv = visibility

stations d'obs. à proximité